Surat Thani, Thailand

11:13 PM +07 on September 24, 2017 (GMT +0700)
Surat Thani

Weather History for VTSB - May, 2013

Change the Weather History Date:

Saturday, May 25, 2013

  Actual Average Record
Temperature  
Mean Temperature 82 °F -  
Max Temperature 91 °F 91 °F - ()
Min Temperature 73 °F 74 °F - ()
Cooling Degree Days 17    
Growing Degree Days 32 (Base 50)    
Moisture  
Dew Point 76 °F    
Average Humidity 94    
Maximum Humidity 100    
Minimum Humidity 79    
Precipitation  
Precipitation 0.00 in 0.19 in - ()
Sea Level Pressure  
Sea Level Pressure 29.81 in    
Wind  
Wind Speed 4 mph ()    
Max Wind Speed 15 mph    
Max Gust Speed -    
Visibility 4.4 miles    
Events Rain , Thunderstorm    
T = Trace of Precipitation, MM = Missing Value Source: Averaged Metar Reports

Daily Weather History Graph

Daily Weather History Graph

Search for Another Location

Airport or City:

Trip Planner

Search our weather history database for the weather conditions in past years. The results will help you decide how hot, cold, wet, or windy it might be!

Date:

Astronomy

May. 25, 2013 Rise Set
Actual Time 6:02 AM +07 6:38 PM +07
Civil Twilight 5:40 AM +07 7:00 PM +07
Nautical Twilight 5:13 AM +07 7:27 PM +07
Astronomical Twilight 4:46 AM +07 7:53 PM +07
Moon 6:54 PM +07 (5/25) 5:54 AM +07 (5/25)
Length of Visible Light 13h 20m
Length of Day
12h 35m
Full, 100% of the Moon is Illuminated
May 25
Full
Jun 1
Last Quarter
Jun 8
New
Jun 17
First Quarter
Jun 23
Full

Hourly Weather History & Observations

Time (+07) Temp. Heat Index Dew Point Humidity Pressure Visibility Wind Dir Wind Speed Gust Speed Precip Events Conditions
1:00 AM 76 °F - 75 °F 95% 29.78 in 4 mi South 2.3 mph - -   Mist
6:00 AM 73.4 °F - 73.4 °F 100% 29.77 in 3.1 mi SW 3.5 mph - N/A   Mostly Cloudy
7:00 AM 74 °F - 74 °F 100% 29.81 in 5 mi Calm Calm - -   Mist
7:00 AM 73.4 °F - 73.4 °F 100% 29.80 in 3.1 mi WSW 3.5 mph - N/A   Mostly Cloudy
8:00 AM 77.0 °F - 77.0 °F 100% 29.83 in 3.7 mi South 5.8 mph - N/A   Mostly Cloudy
9:00 AM 82.4 °F 92.4 °F 78.8 °F 89% 29.83 in 4.3 mi South 6.9 mph - N/A   Mostly Cloudy
10:00 AM 82.4 °F 92.4 °F 78.8 °F 89% 29.86 in 6.2 mi South 6.9 mph - N/A   Mostly Cloudy
11:00 AM 86.0 °F 99.3 °F 78.8 °F 79% 29.83 in 6.2 mi South 8.1 mph - N/A   Mostly Cloudy
12:00 PM 80.6 °F 87.1 °F 77.0 °F 89% 29.83 in - WSW 11.5 mph - N/A Rain Rain
1:00 PM 80 °F - 77 °F 87% 29.84 in 5 mi Calm Calm - - Rain , Thunderstorm Thunderstorms and Rain
1:00 PM 77.0 °F - 77.0 °F 100% 29.83 in 4.3 mi WNW 4.6 mph - N/A Rain Rain
2:00 PM 78.8 °F - 78.8 °F 100% 29.80 in 3.7 mi Calm Calm - N/A   Mostly Cloudy
3:00 PM 82.4 °F 92.4 °F 78.8 °F 89% 29.80 in 5.0 mi SW 9.2 mph - N/A   Mostly Cloudy
4:00 PM 80.6 °F 88.1 °F 78.8 °F 94% 29.80 in 5.0 mi South 10.4 mph - N/A   Mostly Cloudy
5:00 PM 78.8 °F - 77.0 °F 94% 29.80 in 4.3 mi SSW 9.2 mph - N/A   Mostly Cloudy
6:00 PM 75.2 °F - 75.2 °F 100% 29.80 in 3.7 mi WSW 15.0 mph - N/A   Overcast
7:00 PM 77 °F - 74 °F 88% 29.80 in 6 mi WSW 3.5 mph - -   Partly Cloudy
7:00 PM 75.2 °F - 75.2 °F 100% 29.80 in 3.7 mi SW 8.1 mph - N/A   Overcast
8:00 PM 75.2 °F - 75.2 °F 100% 29.83 in 3.7 mi South 3.5 mph - N/A   Overcast